{"data":{"norad_id":57172,"intl_designator":"2023-091G","name":"UMKA 1 (RS40S)","alt_names":[],"object_type":"PAYLOAD","status":"ACTIVE","operator":null,"country":"CIS","launch_date":"2023-06-27","launch_site_code":"VOSTO","launch_vehicle":null,"mission":null,"orbit_class":"UNKNOWN","rcs_meters":null,"size_class":null,"mass_kg":null,"dimensions":null,"purposes":["comms"],"wikipedia_slug":null,"has_3d_model":false,"image_url":null,"decayed_at":null,"tle_current":{"epoch":"2026-09-19T22:36:58.966560Z","epoch_age_seconds":62680,"freshness":"FRESH","line1":"1 57172U 23091G   26262.94234915  .00003611  00000+0  16226-3 0  9992","line2":"2 57172  97.4952 321.2841 0013437 143.2240 216.9921 15.21717282178412","mean_motion":15.21717282,"eccentricity":0.0013437,"inclination_deg":97.4952,"raan_deg":321.2841,"arg_perigee_deg":143.224,"mean_anomaly_deg":216.9921,"bstar":0.00016226,"rev_number":17841,"period_min":94.629930081848,"perigee_km":491.41748055652,"apogee_km":509.90356101387,"semimajor_km":6878.7975207852,"source":"CELESTRAK","updated_at":"2026-09-20T09:00:45.237243Z"}}}